[[{"header":{"parameterUnit":"m.s-1","parameterCategory":1,"la1":30.2991,"la2":30.254,"lo1":-89.0895,"lo2":-89.0444,"dy":0.0017,"dx":0.0017,"nx":28,"ny":28,"refTime":"2023-09-10T03:00:00:Z","depth":0,"parameterNumber":2,"parameterNumberName":"U-component_of_WINDS"},"data":[0,0,0,0,0,0,0,0,0,0,0,0,0,0,0,0,0,0,0,0,0,0,0,0,0,0,0,0,0,0,0,0,0,0,0,0,0,0,0,0,0,0,0,0,0,0,0,0,0,0,0,0,0,0,0,0,0,0,0.9882,0.9883,0,1.0008,1.001,1.0011,1.0051,1.0051,1.005,1.0049,1.0181,1.0185,1.0189,0,0,0,0,0,0,0,0,0,0,0,0,0,0.9673,0.9677,0.9881,0.9883,0.9885,1.0008,1.001,1.0011,1.0051,1.0051,1.005,1.0049,1.0179,1.0184,1.0189,0,0,0,0,0,0,0,0,0,0,0,0,0,0.9778,0.9678,0.9881,0.9919,0.9924,1.0008,1.001,1.0012,1.0051,1.0051,1.005,1.0049,1.0178,1.0184,1.019,1.0245,0,0,1.0208,1.0211,0,0,0,0,0,0,0,0,0.9772,0.9786,0.9912,0.9917,0.9922,1.0013,0.9984,1.009,1.0052,1.0003,1.0049,1.0048,1.0126,1.0136,1.0162,1.0251,1.0257,1.0209,1.0212,1.0215,1.0217,0,0,0,0,0,0,0,0.9765,0.978,0.9932,0.9914,0.992,0.993,0.9944,1.0005,1.0068,1.0007,1.001,1.0025,1.0128,1.0156,1.0165,1.0258,1.0208,1.0214,1.0218,1.022,1.0396,1.0397,0,0,0,0,0,0,0.9751,0.9774,0.9928,0.9935,0.9843,0.9934,0.995,0.9985,1.0067,1.0079,1.0025,1.0026,1.0146,1.0158,1.017,1.0238,1.0215,1.0221,1.0224,1.0395,1.0397,1.0398,0,0,0,0,0,0,0.9746,0.9764,0.9922,0.9856,0.9877,0.9939,0.9978,0.9988,1.0015,1.0081,1.0093,1.0042,1.0146,1.0161,1.0225,1.0243,1.0223,1.0229,1.0394,1.0396,1.0397,1.0376,0,0,0,0,0,0,0.974,0.9762,0.9784,0.9856,0.988,0.9976,0.9979,0.9991,1.0025,1.0028,1.01,1.0111,1.0146,1.0216,1.0231,1.0251,1.0234,1.0393,1.0395,1.0397,1.0375,1.0376,1.0377,0,0,0,0,0,0.9733,0.9774,0.9785,0.9804,0.9909,0.9977,0.9991,1.003,1.0027,1.0049,1.0091,1.0108,1.0239,1.0222,1.024,1.0262,1.0392,1.0394,1.0396,1.0375,1.0376,1.0377,0,0,0,0,0,0,0.9705,0.9784,0.9798,0.9864,0.9913,0.9983,1.0013,1.0031,1.0083,1.0083,1.013,1.0146,1.0205,1.024,1.022,1.0318,1.0316,1.0322,1.0293,1.0295,1.0296,1.0286,1.0239,0,0,0,0,0,0.9706,0.9754,0.9822,0.9873,0.9897,0.995,0.9982,1.0007,1.0061,1.0082,1.0129,1.018,1.0232,1.0266,1.0318,1.038,1.0395,1.0404,1.0405,1.0405,1.041,1.0443,1.0447,1.0405,1.0405,1.0405,0,0,0.9709,0.9759,0.9787,0.9869,0.991,0.9958,0.9968,1.002,1.0056,1.009,1.0153,1.0188,1.0248,1.0311,1.0341,1.0342,1.0425,1.0408,1.0408,1.0413,1.0446,1.045,1.0453,1.0407,1.0407,1.0406,0,0,0.974,0.9783,0.983,0.987,0.9932,0.9967,0.9978,1.0045,1.007,1.0133,1.0159,1.0202,1.0292,1.0333,1.0366,1.0409,1.0426,1.0424,1.043,1.0462,1.0466,1.0469,1.0482,1.0487,1.0429,1.0429,1.0428,0,0.9737,0.9811,0.9852,0.9901,0.9936,0.9967,1.0014,1.0052,1.0127,1.015,1.015,1.0261,1.0304,1.0375,1.0385,1.0411,1.0424,1.0416,1.0462,1.0465,1.0469,1.0482,1.0488,1.0428,1.0428,1.0428,1.0428,0,0.9803,0.9854,0.9884,0.9955,0.9993,1.0041,1.0087,1.0121,1.0143,1.0177,1.024,1.0292,1.0354,1.0373,1.0395,1.0447,1.0445,1.0452,1.0451,1.0471,1.0485,1.0491,1.0427,1.0427,1.0427,1.0427,0,0,0.9821,0.9912,0.9922,0.9953,1.0023,1.0063,1.0111,1.0171,1.0197,1.0248,1.0289,1.0363,1.0369,1.0406,1.0433,1.0461,1.0489,1.0465,1.0467,1.0467,1.0547,1.054,1.0546,1.0501,1.0503,1.0504,1.0542,0,0.986,0.9947,0.9984,1.0055,1.0101,1.0131,1.0173,1.0219,1.0252,1.0296,1.0333,1.0383,1.0389,1.0411,1.044,1.048,1.0506,1.0478,1.0539,1.0541,1.0523,1.0553,1.0547,1.0581,1.0547,1.0548,1.0549,0,0.9917,0.9966,1.0041,1.0102,1.0123,1.016,1.0216,1.0258,1.0311,1.0333,1.0372,1.0397,1.0448,1.0443,1.0513,1.0493,1.052,1.0543,1.0546,1.0553,1.0546,1.056,1.0593,1.0597,1.0558,1.0557,1.0557,0,0.992,1.0005,1.0061,1.0087,1.016,1.0185,1.0217,1.0269,1.0301,1.035,1.0372,1.0426,1.0456,1.0497,1.0536,1.0529,1.0602,1.06,1.062,1.0619,1.0635,1.0633,1.0671,1.0653,1.0653,1.0653,1.0653,0,0.9959,1.0003,1.0063,1.0097,1.0146,1.0188,1.0236,1.027,1.0315,1.0355,1.0385,1.0422,1.0471,1.0514,1.0545,1.0597,1.0611,1.0629,1.0637,1.0626,1.0624,1.0645,1.0643,1.0654,1.0654,1.0654,1.0653,0,0.9971,1.0013,1.0075,1.0139,1.0156,1.0189,1.0244,1.0277,1.031,1.0361,1.0375,1.0428,1.048,1.0522,1.0591,1.0611,1.0666,1.0675,1.0648,1.0651,1.0669,1.0666,1.0721,1.0729,1.0706,1.0706,1.0706,0,0.9993,1.0028,1.0094,1.0123,1.0154,1.02,1.0233,1.0274,1.0307,1.0368,1.0394,1.0448,1.0493,1.0575,1.0619,1.0671,1.0681,1.0696,1.0689,1.0677,1.068,1.0677,1.068,1.0697,1.0697,1.0697,1.0697,0,1.0026,1.0045,1.0091,1.0144,1.0182,1.0225,1.027,1.0292,1.0341,1.0376,1.0429,1.0464,1.0533,1.0585,1.0641,1.0674,1.0693,1.0699,1.0706,1.0696,1.0678,1.0686,1.0648,1.0698,1.0698,1.0698,1.0698,1.0698,1.0044,1.0075,1.0126,1.0175,1.0213,1.0253,1.0287,1.0324,1.0369,1.0427,1.0449,1.0503,1.0553,1.063,1.0662,1.0705,1.0707,1.0717,1.072,1.0722,1.072,1.0671,1.0715,1.0715,1.0715,1.0715,1.0715,0,1.0077,1.0111,1.0156,1.0217,1.0255,1.0269,1.0319,1.035,1.0397,1.0441,1.0485,1.0545,1.0595,1.0642,1.0695,1.072,1.073,1.0732,1.0731,1.0737,1.0716,1.0704,1.0723,1.0723,1.0723,1.0723,1.0723,1.0723,1.0099,1.0152,1.0176,1.0247,1.0281,1.0333,1.036,1.0397,1.0432,1.0497,1.0539,1.0569,1.0615,1.067,1.0717,1.073,1.0747,1.0747,1.0762,1.074,1.0739,1.0738,1.0727,1.0751,1.0751,1.078,1.078,1.078]},{"header":{"parameterUnit":"m.s-1","parameterCategory":1,"la1":30.2991,"la2":30.254,"lo1":-89.0895,"lo2":-89.0444,"dy":0.0017,"dx":0.0017,"nx":28,"ny":28,"refTime":"2023-09-10T03:00:00:Z","depth":0,"parameterNumber":3,"parameterNumberName":"V-component_of_WINDS"},"data":[0,0,0,0,0,0,0,0,0,0,0,0,0,0,0,0,0,0,0,0,0,0,0,0,0,0,0,0,0,0,0,0,0,0,0,0,0,0,0,0,0,0,0,0,0,0,0,0,0,0,0,0,0,0,0,0,0,0,2.4739,2.4739,0,2.4711,2.471,2.471,2.466,2.4659,2.4658,2.4657,2.4626,2.4626,2.4626,0,0,0,0,0,0,0,0,0,0,0,0,0,2.4746,2.4746,2.4739,2.4739,2.4738,2.4711,2.471,2.471,2.466,2.4659,2.4657,2.4656,2.4626,2.4626,2.4626,0,0,0,0,0,0,0,0,0,0,0,0,0,2.4733,2.4746,2.4739,2.471,2.4707,2.4711,2.471,2.471,2.466,2.4658,2.4657,2.4656,2.4626,2.4626,2.4626,2.4656,0,0,2.4627,2.4627,0,0,0,0,0,0,0,0,2.4734,2.4733,2.4715,2.4712,2.4709,2.4687,2.4702,2.4692,2.466,2.4678,2.4657,2.4655,2.4648,2.4646,2.4644,2.4655,2.4653,2.4627,2.4627,2.4627,2.4627,0,0,0,0,0,0,0,2.4735,2.4734,2.4728,2.4714,2.4711,2.4697,2.4694,2.47,2.4671,2.4676,2.4672,2.467,2.4646,2.4644,2.4643,2.4653,2.4627,2.4627,2.4627,2.4627,2.4682,2.4683,0,0,0,0,0,0,2.474,2.4735,2.4729,2.4727,2.4718,2.4698,2.4694,2.4696,2.4671,2.4666,2.4671,2.4668,2.4644,2.4643,2.4641,2.4671,2.4627,2.4627,2.4627,2.4681,2.4682,2.4684,0,0,0,0,0,0,2.474,2.474,2.473,2.473,2.4727,2.47,2.4701,2.4696,2.4694,2.4667,2.4661,2.4674,2.4643,2.4641,2.4652,2.4669,2.4627,2.4627,2.4679,2.4681,2.4683,2.4733,0,0,0,0,0,0,2.4741,2.4741,2.4752,2.473,2.4728,2.4742,2.4703,2.4696,2.4694,2.4689,2.4669,2.4664,2.4642,2.4652,2.4652,2.4669,2.4627,2.4677,2.468,2.4682,2.4729,2.4736,2.4742,0,0,0,0,0,2.4741,2.4768,2.4753,2.4753,2.4742,2.4743,2.4741,2.4716,2.4696,2.4706,2.4689,2.4665,2.4668,2.4653,2.4653,2.467,2.4676,2.4679,2.4682,2.4726,2.4735,2.4742,0,0,0,0,0,0,2.4793,2.4765,2.4748,2.4769,2.4759,2.4735,2.4747,2.4726,2.4721,2.4717,2.4685,2.4681,2.4694,2.4684,2.4668,2.4695,2.4668,2.4671,2.4702,2.4709,2.4716,2.4717,2.4627,0,0,0,0,0,2.4807,2.4811,2.4786,2.4806,2.4802,2.4776,2.4775,2.4756,2.4745,2.474,2.4723,2.4712,2.471,2.471,2.4707,2.4728,2.4721,2.4739,2.4746,2.4751,2.4753,2.476,2.4767,2.4694,2.4694,2.4694,0,0,2.4835,2.482,2.4825,2.4816,2.4806,2.4809,2.4773,2.4779,2.478,2.4741,2.4749,2.4736,2.4721,2.4737,2.4742,2.4728,2.4772,2.4755,2.476,2.4759,2.4764,2.4771,2.4777,2.4696,2.4696,2.4696,0,0,2.4888,2.4879,2.4893,2.4883,2.4868,2.485,2.4854,2.4833,2.4822,2.483,2.48,2.4801,2.48,2.4789,2.4783,2.483,2.4806,2.483,2.4862,2.4869,2.4875,2.488,2.4893,2.4898,2.4833,2.4833,2.4833,0,2.4925,2.4929,2.4903,2.4909,2.4905,2.487,2.4882,2.4874,2.4859,2.4856,2.4841,2.4836,2.4824,2.4834,2.4845,2.4843,2.4844,2.4831,2.4876,2.4881,2.4885,2.4897,2.4903,2.4836,2.4835,2.4835,2.4835,0,2.4973,2.4977,2.499,2.4975,2.4973,2.4983,2.4956,2.4957,2.4938,2.4921,2.4927,2.4912,2.4903,2.4905,2.4887,2.4912,2.4902,2.4883,2.4854,2.4895,2.4906,2.4911,2.484,2.4839,2.4838,2.4837,0,0,2.5057,2.5027,2.5032,2.5023,2.5003,2.5005,2.5012,2.5004,2.5003,2.4994,2.4997,2.4996,2.4976,2.497,2.495,2.4957,2.499,2.4935,2.4934,2.4943,2.5012,2.5025,2.5031,2.4975,2.4976,2.4976,2.5012,0,2.5103,2.5114,2.5089,2.5105,2.5106,2.5072,2.5078,2.5065,2.505,2.5047,2.503,2.5027,2.5004,2.4999,2.5004,2.4985,2.5003,2.4982,2.4975,2.4975,2.4977,2.5038,2.5052,2.5087,2.5017,2.5017,2.5018,0,2.5158,2.515,2.5166,2.5143,2.5142,2.5148,2.5136,2.5136,2.512,2.5108,2.51,2.5077,2.508,2.5054,2.5057,2.5043,2.5039,2.5029,2.503,2.5026,2.4997,2.5032,2.5098,2.5102,2.5025,2.5024,2.5024,0,2.5212,2.5207,2.5214,2.5209,2.5183,2.5187,2.5176,2.5159,2.5155,2.5145,2.5141,2.5132,2.5127,2.5119,2.5093,2.5078,2.5098,2.5071,2.5085,2.5086,2.5089,2.5089,2.5152,2.5092,2.5091,2.5091,2.5091,0,2.5264,2.5274,2.5238,2.5243,2.5252,2.5224,2.5234,2.5219,2.5204,2.5204,2.5175,2.5175,2.5142,2.5138,2.5118,2.5121,2.512,2.5108,2.5102,2.5109,2.511,2.5104,2.51,2.5093,2.5092,2.5092,2.5092,0,2.5326,2.5303,2.5308,2.5283,2.5277,2.5285,2.5262,2.5264,2.5246,2.5246,2.5245,2.5216,2.521,2.5184,2.5171,2.5158,2.5166,2.5157,2.5171,2.5167,2.5182,2.5179,2.524,2.5245,2.5185,2.5186,2.5186,0,2.5359,2.5366,2.5341,2.5339,2.5329,2.5326,2.5321,2.5293,2.5289,2.527,2.5274,2.5265,2.5256,2.5247,2.5225,2.5214,2.5202,2.5224,2.52,2.5206,2.5199,2.5197,2.5196,2.5229,2.5229,2.523,2.5231,0,2.5419,2.5407,2.5401,2.5391,2.5385,2.5376,2.5365,2.5364,2.5332,2.5329,2.5322,2.5315,2.5302,2.5292,2.5278,2.5265,2.5241,2.5239,2.5241,2.5247,2.5254,2.5247,2.5182,2.5237,2.5236,2.5236,2.5235,2.5235,2.5465,2.5468,2.545,2.5444,2.5433,2.5422,2.5422,2.5404,2.5398,2.5385,2.5368,2.5363,2.5344,2.5322,2.5311,2.5305,2.5292,2.5297,2.5297,2.5298,2.53,2.5257,2.5303,2.5302,2.5302,2.5302,2.5302,0,2.552,2.5507,2.5502,2.5486,2.5481,2.5461,2.5447,2.5443,2.5438,2.5424,2.5415,2.5406,2.5396,2.5373,2.536,2.5359,2.5348,2.5357,2.5355,2.5352,2.5313,2.5311,2.5366,2.5366,2.5366,2.5366,2.5366,2.5366,2.5548,2.5552,2.5537,2.5534,2.552,2.5514,2.5507,2.5497,2.5485,2.5475,2.5467,2.5452,2.5433,2.5418,2.5408,2.5401,2.5396,2.5408,2.5397,2.5361,2.5355,2.5349,2.5347,2.5408,2.5408,2.5435,2.5436,2.5436]}]]